Faith, SD

5:13 PM MST on November 22, 2017 (GMT -0700)
Faith

Weather History for KD07 - February, 2014

Change the Weather History Date:

Friday, February 21, 2014

  Actual Average Record
Temperature  
Mean Temperature 29 °F 25 °F  
Max Temperature 37 °F 35 °F 69 °F (2017)
Min Temperature 21 °F 15 °F -10 °F (2011)
Degree Days  
Heating Degree Days 36 40  
Month to date heating degree days 1058 889  
Since 1 July heating degree days 5752 5418  
Cooling Degree Days 0 0  
Month to date cooling degree days 0 0  
Year to date cooling degree days 0 0  
Moisture  
Dew Point 23 °F    
Average Humidity 82    
Maximum Humidity 100    
Minimum Humidity 64    
Precipitation  
Precipitation 0.13 in 0.01 in 0.13 in (2014)
Month to date precipitation 0.51 0.35  
Year to date precipitation 0.71 0.55  
Sea Level Pressure  
Sea Level Pressure 29.83 in    
Wind  
Wind Speed 6 mph (NNW)    
Max Wind Speed 17 mph    
Max Gust Speed 23 mph    
T = Trace of Precipitation, MM = Missing Value Source: NWS Daily Summary

Daily Weather History Graph

Daily Weather History Graph

Search for Another Location

Airport or City:

Trip Planner

Search our weather history database for the weather conditions in past years. The results will help you decide how hot, cold, wet, or windy it might be!

Date:

Astronomy

Feb. 21, 2014 Rise Set
Actual Time 6:39 AM MST 5:24 PM MST
Civil Twilight 6:09 AM MST 5:54 PM MST
Nautical Twilight 5:35 AM MST 6:28 PM MST
Astronomical Twilight 5:01 AM MST 7:02 PM MST
Moon No Moon Rise 9:47 AM MST (2/21)
Length of Visible Light 11h 44m
Length of Day
10h 45m
Waning Gibbous, 60% of the Moon is Illuminated
Feb 21
Waning Gibbous
Feb 22
Last Quarter
Mar 1
New
Mar 8
First Quarter
Mar 16
Full

Hourly Weather History & Observations

Time (MST) Temp. Windchill Dew Point Humidity Pressure Visibility Wind Dir Wind Speed Gust Speed Precip Events Conditions
12:56 AM 21.9 °F 17.2 °F 17.1 °F 82% 29.78 in - SSW 3.5 mph - N/A   Unknown
1:56 AM 23.0 °F - 19.0 °F 85% 29.76 in - Calm Calm - N/A   Unknown
2:56 AM 25.0 °F 18.1 °F 19.0 °F 78% 29.74 in - SW 5.8 mph - N/A   Unknown
3:56 AM 26.1 °F 20.5 °F 21.9 °F 84% 29.75 in - West 4.6 mph - N/A   Unknown
4:56 AM 26.1 °F 20.5 °F 24.1 °F 92% 29.76 in - North 4.6 mph - 0.01 in   Unknown
5:56 AM 26.1 °F 18.4 °F 24.1 °F 92% 29.77 in - NW 6.9 mph 23.0 mph 0.04 in   Unknown
6:56 AM 26.1 °F 16.8 °F 24.1 °F 92% 29.78 in - NW 9.2 mph - N/A   Unknown
7:56 AM 23.0 °F 15.8 °F 21.0 °F 92% 29.81 in - North 5.8 mph - 0.03 in   Unknown
8:56 AM 27.0 °F 20.5 °F 21.9 °F 81% 29.80 in - NNW 5.8 mph - 0.01 in   Unknown
9:56 AM 28.9 °F 20.4 °F 24.1 °F 82% 29.81 in - NNW 9.2 mph - N/A   Unknown
10:56 AM 30.0 °F 23.2 °F 24.1 °F 79% 29.81 in - NW 6.9 mph - N/A   Unknown
11:56 AM 32.0 °F 24.8 °F 25.0 °F 75% 29.81 in - NW 8.1 mph - N/A   Unknown
12:56 PM 34.0 °F 26.0 °F 26.1 °F 73% 29.80 in - WNW 10.4 mph - N/A   Unknown
1:56 PM 35.1 °F 27.9 °F 26.1 °F 70% 29.79 in - NW 9.2 mph - N/A   Unknown
2:56 PM 37.0 °F 31.0 °F 26.1 °F 65% 29.78 in - NNW 8.1 mph - N/A   Unknown
3:56 PM 34.0 °F 28.8 °F 26.1 °F 73% 29.80 in - NNW 5.8 mph - N/A   Unknown
4:56 PM 32.0 °F - 25.0 °F 75% 29.82 in - Calm Calm - N/A   Unknown
5:56 PM 28.0 °F 24.2 °F 26.1 °F 92% 29.85 in - ESE 3.5 mph - 0.01 in   Unknown
6:56 PM 28.0 °F 20.0 °F 26.1 °F 92% 29.87 in - NE 8.1 mph - 0.03 in   Unknown
7:56 PM 27.0 °F 18.7 °F 24.1 °F 89% 29.91 in - NNE 8.1 mph - N/A   Unknown
8:56 PM 21.9 °F 13.4 °F 21.0 °F 96% 29.92 in - North 6.9 mph - N/A   Unknown
9:56 PM 23.0 °F 13.9 °F 19.9 °F 88% 29.96 in - NNE 8.1 mph - N/A   Unknown
10:56 PM 21.9 °F 15.7 °F 19.0 °F 89% 29.96 in - ENE 4.6 mph - N/A   Unknown
11:56 PM 21.9 °F 10.4 °F 16.0 °F 78% 29.97 in - North 11.5 mph - N/A   Unknown